Weather History for Bartow, FL

Change the Weather History Date:

Sunday, September 9, 2012

  Actual Average Record
Temperature  
Mean Temperature 78 °F -  
Max Temperature 80 °F 90 °F 97 °F (1937)
Min Temperature 75 °F 72 °F 63 °F (1972)
Cooling Degree Days 12    
Growing Degree Days 28 (Base 50)    
Moisture  
Dew Point 75 °F    
Average Humidity 98    
Maximum Humidity 100    
Minimum Humidity 84    
Precipitation  
Precipitation 0.14 in - - ()
Sea Level Pressure  
Sea Level Pressure 29.93 in    
Wind  
Wind Speed 5 mph (SSW)    
Max Wind Speed 9 mph    
Max Gust Speed -    
Visibility 7 miles    
Events Rain , Thunderstorm    
Averages and records for this station are not official NWS values.
T = Trace of Precipitation, MM = Missing Value Source: NWS Daily Summary

Daily Weather History Graph

Daily Weather History Graph

Search for Another Location

Airport:

Trip Planner

Search our weather history database for the weather conditions in past years. The results will help you decide how hot, cold, wet, or windy it might be!

Date:

Astronomy

Sep. 09, 2012 Rise Set
Actual Time 7:09 AM EDT 7:38 PM EDT
Civil Twilight 6:46 AM EDT 8:01 PM EDT
Nautical Twilight 6:18 AM EDT 8:29 PM EDT
Astronomical Twilight 5:50 AM EDT 8:57 PM EDT
Moon 1:00 AM EDT (9/9) 3:00 PM EDT (9/9)
Length of Visible Light 13h 15m
Length of Day
12h 28m
Last Quarter, 39% of the Moon is Illuminated
Sep 9
Last Quarter
Sep 15
New
Sep 22
First Quarter
Sep 29
Full
Oct 8
Last Quarter

Hourly Weather History & Observations

Time (EDT) Temp. Heat Index Dew Point Humidity Pressure Visibility Wind Dir Wind Speed Gust Speed Precip Events Conditions
12:15 AM 75.2 °F - 73.4 °F 94% 29.93 in 9.0 mi South 5.8 mph - N/A   Partly Cloudy
12:55 AM 75.2 °F - 75.2 °F 100% 29.92 in 10.0 mi South 4.6 mph - N/A   Partly Cloudy
1:15 AM 75.2 °F - 75.2 °F 100% 29.91 in 10.0 mi South 4.6 mph - N/A   Partly Cloudy
1:35 AM 75.2 °F - 75.2 °F 100% 29.91 in 8.0 mi South 4.6 mph - N/A   Partly Cloudy
1:55 AM 75.2 °F - 75.2 °F 100% 29.91 in 8.0 mi South 4.6 mph - N/A   Clear
2:15 AM 75.2 °F - 75.2 °F 100% 29.91 in 8.0 mi South 6.9 mph - N/A   Clear
2:35 AM 75.2 °F - 75.2 °F 100% 29.90 in 8.0 mi South 8.1 mph - N/A   Partly Cloudy
2:55 AM 75.2 °F - 75.2 °F 100% 29.90 in 8.0 mi South 8.1 mph - N/A   Scattered Clouds
3:15 AM 75.2 °F - 75.2 °F 100% 29.90 in 9.0 mi South 6.9 mph - N/A   Partly Cloudy
3:35 AM 75.2 °F - 75.2 °F 100% 29.90 in 8.0 mi South 6.9 mph - N/A   Clear
3:55 AM 75.2 °F - 75.2 °F 100% 29.90 in 8.0 mi South 5.8 mph - N/A   Partly Cloudy
4:15 AM 75.2 °F - 75.2 °F 100% 29.91 in 7.0 mi South 4.6 mph - N/A   Scattered Clouds
4:35 AM 75.2 °F - 75.2 °F 100% 29.90 in 6.0 mi SSE 6.9 mph - N/A   Clear
4:55 AM 75.2 °F - 75.2 °F 100% 29.91 in 7.0 mi South 5.8 mph - N/A   Partly Cloudy
5:15 AM 75.2 °F - 75.2 °F 100% 29.91 in 7.0 mi South 5.8 mph - N/A   Partly Cloudy
5:35 AM 75.2 °F - 75.2 °F 100% 29.91 in 6.0 mi South 6.9 mph - N/A   Scattered Clouds
5:55 AM 75.2 °F - 75.2 °F 100% 29.91 in 7.0 mi South 5.8 mph - N/A   Clear
6:15 AM 75.2 °F - 75.2 °F 100% 29.91 in 6.0 mi South 8.1 mph - N/A Thunderstorm Clear
6:35 AM 75.2 °F - 75.2 °F 100% 29.91 in 6.0 mi South 6.9 mph - N/A Thunderstorm Partly Cloudy
6:55 AM 75.2 °F - 75.2 °F 100% 29.91 in 6.0 mi South 5.8 mph - N/A   Partly Cloudy
7:15 AM 75.2 °F - 75.2 °F 100% 29.92 in 5.0 mi South 8.1 mph - N/A Thunderstorm Partly Cloudy
3:35 PM 77.0 °F - 75.2 °F 94% 29.91 in 8.0 mi SW 6.9 mph - N/A   Partly Cloudy
3:55 PM 78.8 °F - 75.2 °F 89% 29.92 in 9.0 mi West 8.1 mph - N/A   Mostly Cloudy
4:15 PM 78.8 °F - 75.2 °F 89% 29.92 in 8.0 mi West 6.9 mph - N/A   Mostly Cloudy
4:35 PM 78.8 °F - 75.2 °F 89% 29.92 in 8.0 mi West 6.9 mph - N/A   Mostly Cloudy
4:55 PM 78.8 °F - 75.2 °F 89% 29.92 in 7.0 mi West 5.8 mph - N/A   Scattered Clouds
5:15 PM 80.6 °F 86.2 °F 75.2 °F 84% 29.92 in 7.0 mi WSW 6.9 mph - N/A Thunderstorm Partly Cloudy
5:35 PM 80.6 °F 86.2 °F 75.2 °F 84% 29.93 in 7.0 mi West 9.2 mph - N/A Thunderstorm Thunderstorm
5:55 PM 77.0 °F - 75.2 °F 94% 29.93 in 1.0 mi West 5.8 mph - 0.14 in Rain Heavy Rain
6:15 PM 77.0 °F - 77.0 °F 100% 29.93 in 5.0 mi West 3.5 mph - N/A Thunderstorm Mostly Cloudy
6:35 PM 77.0 °F - 77.0 °F 100% 29.94 in 7.0 mi SSW 3.5 mph - N/A Thunderstorm Thunderstorm
6:55 PM 77.0 °F - 77.0 °F 100% 29.93 in 7.0 mi WSW 3.5 mph - N/A Thunderstorm Thunderstorm
7:15 PM 77.0 °F - 77.0 °F 100% 29.94 in 6.0 mi Calm Calm - N/A Thunderstorm Scattered Clouds
7:35 PM 77.0 °F - 77.0 °F 100% 29.94 in 5.0 mi Calm Calm - N/A Thunderstorm Mostly Cloudy
7:55 PM 75.2 °F - 75.2 °F 100% 29.94 in 7.0 mi SSW 3.5 mph - N/A Thunderstorm Scattered Clouds
8:15 PM 75.2 °F - 75.2 °F 100% 29.95 in 5.0 mi South 5.8 mph - N/A Thunderstorm Mostly Cloudy
8:35 PM 75.2 °F - 75.2 °F 100% 29.96 in 8.0 mi SW 4.6 mph - N/A   Mostly Cloudy
8:55 PM 75.2 °F - 75.2 °F 100% 29.96 in 7.0 mi SW 3.5 mph - N/A   Scattered Clouds
9:15 PM 75.2 °F - 75.2 °F 100% 29.96 in 8.0 mi WSW 5.8 mph - N/A   Partly Cloudy
9:35 PM 75.2 °F - 75.2 °F 100% 29.96 in 7.0 mi WSW 6.9 mph - N/A   Scattered Clouds
9:55 PM 75.2 °F - 75.2 °F 100% 29.97 in 7.0 mi WSW 4.6 mph - N/A   Mostly Cloudy
10:15 PM 75.2 °F - 75.2 °F 100% 29.98 in 5.0 mi SW 3.5 mph - N/A   Mostly Cloudy
10:35 PM 75.2 °F - 75.2 °F 100% 29.99 in 5.0 mi Calm Calm - N/A   Scattered Clouds
10:55 PM 75.2 °F - 75.2 °F 100% 29.99 in 5.0 mi Calm Calm - N/A   Mostly Cloudy
11:15 PM 75.2 °F - 75.2 °F 100% 29.99 in 7.0 mi Calm Calm - N/A   Overcast
11:35 PM 75.2 °F - 75.2 °F 100% 29.99 in 8.0 mi South 4.6 mph - N/A   Overcast
11:55 PM 75.2 °F - 75.2 °F 100% 29.99 in 4.0 mi Calm Calm - N/A   Mostly Cloudy